Location: Unspecified
(0.0000°N, 0.0000°E)
Time: 16:26:32
(UTC+00:00)

COMPASS 1 - Visible Passes

Search period start: 28 May 2023 00:00
Search period end: 07 June 2023 00:00
Orbit: 554 x 573 km, 97.6° (Epoch: 28 May)

Date Brightness Start Highest point End Pass type
(mag) Time Alt. Az. Time Alt. Az. Time Alt. Az.
28 May ? 03:36:21 10° NNE 03:37:55 22° NE 03:37:55 22° NE visible
29 May ? 03:36:19 10° NNE 03:37:53 22° NE 03:37:53 22° NE visible
30 May ? 03:36:15 10° NNE 03:37:50 22° NE 03:37:50 22° NE visible
31 May ? 03:36:11 10° NNE 03:37:47 22° NE 03:37:47 22° NE visible
01 Jun ? 03:36:06 10° NNE 03:37:42 22° NE 03:37:42 22° NE visible
02 Jun ? 03:36:00 10° NNE 03:37:37 22° NE 03:37:37 22° NE visible
03 Jun ? 03:35:54 10° NNE 03:37:31 22° NE 03:37:31 22° NE visible
04 Jun ? 03:35:47 10° NNE 03:37:24 22° NE 03:37:24 22° NE visible
05 Jun ? 03:35:39 10° NNE 03:37:16 22° NE 03:37:16 22° NE visible
06 Jun ? 03:35:30 10° NNE 03:37:07 22° NE 03:37:07 22° NE visible
